Location: Mahannah Oil Field
(37.4664°N, 96.6003°W)
Time: 01:10:25
(UTC+00:00)

deb Explorer IX - Pass Details

Date: 25 January 2021
Orbit: 537 x 1102 km, 38.8° (Epoch: 25 February)

Event Time Altitude Azimuth Distance (km) Brightness Sun altitude
Rises 20:53:19 0° 195° (SSW) 3,894 ? 25.5°
Reaches altitude 10° 20:57:19 10° 176° (S) 2,906 ? 25.0°
Maximum altitude 21:01:21 16° 141° (SE) 2,428 ? 24.6°
Drops below altitude 10° 21:05:14 10° 106° (ESE) 2,764 ? 24.1°
Sets 21:08:52 0° 86° (E) 3,612 ? 23.6°
